TimeEST,TemperatureF,Dew PointF,Humidity,Sea Level PressureIn,VisibilityMPH,Wind Direction,Wind SpeedMPH,Gust SpeedMPH,PrecipitationIn,Events,Conditions,WindDirDegrees,DateUTC
12:53 AM,28.9,26.1,89,30.20,9.0,ENE,5.8,-,N/A,,Overcast,60,2012-12-09 05:53:00
1:15 AM,28.4,26.6,93,30.17,10.0,ENE,3.5,-,N/A,,Overcast,70,2012-12-09 06:15:00
1:53 AM,28.9,27.0,92,30.20,9.0,ENE,5.8,-,N/A,,Overcast,70,2012-12-09 06:53:00
2:53 AM,30.0,27.0,88,30.19,10.0,ENE,5.8,-,N/A,,Overcast,70,2012-12-09 07:53:00
3:53 AM,30.0,27.0,88,30.18,10.0,ENE,5.8,-,N/A,,Overcast,60,2012-12-09 08:53:00
4:53 AM,30.0,27.0,88,30.19,10.0,ENE,5.8,-,N/A,,Overcast,60,2012-12-09 09:53:00
5:53 AM,30.0,27.0,88,30.19,10.0,ENE,6.9,-,N/A,,Overcast,70,2012-12-09 10:53:00
6:53 AM,30.9,27.0,85,30.18,10.0,ENE,9.2,-,N/A,,Overcast,70,2012-12-09 11:53:00
7:29 AM,30.2,26.6,86,30.14,10.0,East,6.9,-,N/A,,Overcast,80,2012-12-09 12:29:00
7:53 AM,30.9,27.0,85,30.16,10.0,East,8.1,-,N/A,,Overcast,90,2012-12-09 12:53:00
8:53 AM,32.0,28.0,85,30.12,10.0,East,11.5,-,0.00,Snow,Light Snow,90,2012-12-09 13:53:00
9:53 AM,33.1,28.0,82,30.10,10.0,East,10.4,-,0.00,,Overcast,80,2012-12-09 14:53:00
10:53 AM,34.0,28.9,82,30.08,10.0,East,13.8,-,N/A,,Overcast,90,2012-12-09 15:53:00
11:53 AM,34.0,28.0,79,30.05,10.0,East,10.4,-,N/A,,Overcast,80,2012-12-09 16:53:00
12:53 PM,34.0,28.9,82,29.99,10.0,ENE,13.8,-,N/A,,Overcast,70,2012-12-09 17:53:00
1:09 PM,33.8,28.4,81,29.94,9.0,ENE,11.5,-,0.00,Snow,Light Snow,70,2012-12-09 18:09:00
1:35 PM,33.8,30.2,87,29.92,8.0,ENE,11.5,-,0.00,Rain,Light Rain,70,2012-12-09 18:35:00
1:53 PM,34.0,30.0,85,29.93,3.0,East,12.7,-,0.01,Rain,Light Rain,80,2012-12-09 18:53:00
1:55 PM,33.8,30.2,87,29.90,2.0,ENE,10.4,-,0.00,Rain,Light Rain,70,2012-12-09 18:55:00
2:53 PM,33.1,30.9,92,29.90,2.0,NE,10.4,-,0.04,Rain,Light Rain,50,2012-12-09 19:53:00
3:53 PM,33.1,30.9,92,29.88,2.5,ENE,6.9,-,0.05,Rain,Light Rain,70,2012-12-09 20:53:00
4:21 PM,33.8,30.2,87,29.83,6.0,East,11.5,-,0.00,,Light Drizzle,80,2012-12-09 21:21:00
4:38 PM,33.8,30.2,87,29.84,2.0,ENE,11.5,-,0.00,Rain,Light Rain,70,2012-12-09 21:38:00
4:53 PM,33.1,30.0,89,29.86,2.5,East,11.5,-,0.01,Rain,Light Rain,80,2012-12-09 21:53:00
5:53 PM,32.0,30.0,92,29.84,2.5,ENE,11.5,-,0.00,,Light Drizzle,70,2012-12-09 22:53:00
6:53 PM,32.0,30.0,92,29.82,2.0,NE,5.8,-,0.00,,Light Drizzle,40,2012-12-09 23:53:00
7:02 PM,30.2,30.2,100,29.79,1.8,NE,8.1,-,0.00,,Light Freezing Drizzle,50,2012-12-10 00:02:00
7:20 PM,32.0,30.2,93,29.78,2.0,ENE,9.2,-,0.01,,Light Freezing Drizzle,60,2012-12-10 00:20:00
7:53 PM,30.9,30.0,96,29.78,2.5,ENE,8.1,-,0.01,,Light Freezing Drizzle,60,2012-12-10 00:53:00
8:53 PM,30.9,30.0,96,29.75,2.0,East,6.9,-,0.00,,Light Freezing Drizzle,80,2012-12-10 01:53:00
9:07 PM,30.2,30.2,100,29.72,2.5,ENE,6.9,-,0.00,,Light Freezing Drizzle,70,2012-12-10 02:07:00
9:44 PM,30.2,30.2,100,29.70,3.0,NE,4.6,-,0.00,,Light Freezing Drizzle,50,2012-12-10 02:44:00
9:53 PM,30.9,30.0,96,29.73,2.5,ENE,4.6,-,0.00,,Light Freezing Drizzle,60,2012-12-10 02:53:00
10:53 PM,30.9,30.0,96,29.70,2.0,East,3.5,-,0.00,,Light Freezing Drizzle,80,2012-12-10 03:53:00
11:01 PM,30.2,30.2,100,29.68,1.8,East,3.5,-,0.00,,Light Freezing Drizzle,80,2012-12-10 04:01:00
11:45 PM,30.2,30.2,100,29.67,1.2,Calm,Calm,-,0.00,,Light Freezing Drizzle,0,2012-12-10 04:45:00
11:53 PM,30.9,28.9,92,29.70,1.2,Calm,Calm,-,0.00,,Light Freezing Drizzle,0,2012-12-10 04:53:00